| time (UTC) | temp F | wind direction | speed MPH | gust MPH | rain 1hr in | rain 24hr in | rain mn in | humidity % | barometer mb |
| 20260905080045 | 73 | 105 | 0.0 | 0.0 | 0.00 | 0.00 | 0.00 | 89 | 1011.4 |
| 20260905074527 | 73 | 105 | 0.0 | 0.0 | 0.00 | 0.00 | 0.00 | 89 | 1011.7 |
| 20260905073037 | 73 | 105 | 0.0 | 0.0 | 0.00 | 0.00 | 0.00 | 89 | 1011.9 |
| 20260905071523 | 73 | 105 | 0.0 | 0.0 | 0.00 | 0.00 | 0.00 | 88 | 1012.2 |
| 20260905070022 | 73 | 105 | 0.0 | 0.0 | 0.00 | 0.00 | 0.00 | 88 | 1012.4 |
| 20260905064520 | 73 | 105 | 0.0 | 2.0 | 0.00 | 0.00 | 0.00 | 87 | 1012.4 |
| 20260905063019 | 74 | 106 | 0.0 | 0.0 | 0.00 | 0.00 | 0.00 | 87 | 1012.6 |
| 20260905061520 | 74 | 106 | 0.0 | 0.0 | 0.00 | 0.00 | 0.00 | 86 | 1012.7 |
| 20260905060017 | 74 | 108 | 0.0 | 1.0 | 0.00 | 0.00 | 0.00 | 86 | 1012.8 |
| 20260905054512 | 75 | 110 | 0.0 | 1.0 | 0.00 | 0.00 | 0.00 | 85 | 1013.1 |
| 20260905053018 | 75 | 108 | 0.0 | 0.0 | 0.00 | 0.00 | 0.00 | 84 | 1013.1 |
| 20260905051507 | 76 | 10 | 0.0 | 0.0 | 0.00 | 0.00 | 0.00 | 84 | 1013.5 |
| 20260905050010 | 76 | 10 | 0.0 | 1.0 | 0.00 | 0.00 | 0.00 | 83 | 1013.7 |
| 20260905044505 | 76 | 109 | 0.0 | 0.0 | 0.00 | 0.00 | 0.00 | 82 | 1014.0 |
| 20260905043123 | 77 | 111 | 0.0 | 1.0 | 0.00 | 0.00 | 0.00 | 82 | 1014.0 |
| 20260905041558 | 77 | 109 | 0.0 | 0.0 | 0.00 | 0.00 | 0.00 | 80 | 1013.9 |
| 20260905040116 | 77 | 108 | 0.0 | 0.0 | 0.00 | 0.00 | 0.00 | 79 | 1014.2 |
| 20260905034559 | 78 | 10 | 0.0 | 1.0 | 0.00 | 0.00 | 0.00 | 78 | 1014.3 |
| 20260905033059 | 79 | 108 | 0.0 | 2.0 | 0.00 | 0.00 | 0.00 | 77 | 1014.0 |
| 20260905031554 | 79 | 110 | 0.0 | 1.0 | 0.00 | 0.00 | 0.00 | 76 | 1014.2 |
| 20260905030053 | 80 | 108 | 0.0 | 2.0 | 0.00 | 0.00 | 0.00 | 75 | 1014.2 |
| 20260905024553 | 81 | 112 | 0.0 | 1.0 | 0.00 | 0.00 | 0.00 | 74 | 1014.2 |
| 20260905023058 | 81 | 114 | 0.0 | 2.0 | 0.00 | 0.00 | 0.00 | 73 | 1013.9 |
| 20260905021552 | 82 | 109 | 0.0 | 3.0 | 0.00 | 0.00 | 0.00 | 72 | 1013.8 |
| 20260905020051 | 82 | 113 | 0.0 | 4.0 | 0.00 | 0.00 | 0.00 | 72 | 1013.9 |
| 20260905014551 | 83 | 10 | 0.0 | 2.0 | 0.00 | 0.00 | 0.00 | 71 | 1014.1 |
| 20260905013057 | 83 | 5 | 0.0 | 1.0 | 0.00 | 0.00 | 0.00 | 70 | 1013.6 |
| 20260905011550 | 84 | 5 | 0.0 | 2.0 | 0.00 | 0.00 | 0.00 | 69 | 1013.1 |
| 20260905010052 | 84 | 5 | 0.0 | 2.0 | 0.00 | 0.00 | 0.00 | 69 | 1012.5 |
| 20260905004548 | 84 | 15 | 1.0 | 3.0 | 0.00 | 0.00 | 0.00 | 69 | 1012.4 |
| 20260905003150 | 85 | 162 | 2.0 | 6.0 | 0.00 | 0.00 | 0.00 | 66 | 1012.2 |
| 20260905001549 | 86 | 173 | 1.0 | 7.0 | 0.00 | 0.00 | 0.00 | 67 | 1011.5 |
| 20260905000047 | 86 | 325 | 1.0 | 8.0 | 0.00 | 0.00 | 0.00 | 66 | 1011.9 |
| 20260904234552 | 87 | 260 | 0.0 | 7.0 | 0.00 | 0.00 | 0.00 | 64 | 1012.0 |
| 20260904233046 | 88 | 178 | 4.0 | 11.0 | 0.00 | 0.00 | 0.00 | 62 | 1012.4 |
| 20260904231545 | 89 | 229 | 4.0 | 9.0 | 0.00 | 0.00 | 0.00 | 60 | 1012.7 |
| 20260904230045 | 90 | 219 | 5.0 | 12.0 | 0.00 | 0.00 | 0.00 | 58 | 1012.2 |
| 20260904224546 | 92 | 226 | 4.0 | 12.0 | 0.00 | 0.00 | 0.00 | 56 | 1011.7 |
| 20260904223043 | 95 | 176 | 2.0 | 6.0 | 0.00 | 0.00 | 0.00 | 52 | 1011.3 |
| 20260904221544 | 96 | 316 | 2.0 | 7.0 | 0.00 | 0.00 | 0.00 | 51 | 1011.6 |
| 20260904220106 | 98 | 314 | 2.0 | 8.0 | 0.00 | 0.00 | 0.00 | 48 | 1011.3 |
| 20260904214542 | 100 | 353 | 2.0 | 5.0 | 0.00 | 0.00 | 0.00 | 45 | 1011.2 |
| 20260904213042 | 102 | 302 | 1.0 | 5.0 | 0.00 | 0.00 | 0.00 | 43 | 1011.3 |
| 20260904211555 | 102 | 321 | 2.0 | 5.0 | 0.00 | 0.00 | 0.00 | 41 | 1011.2 |
| 20260904210046 | 103 | 352 | 2.0 | 7.0 | 0.00 | 0.00 | 0.00 | 42 | 1011.2 |
| 20260904204540 | 104 | 298 | 2.0 | 6.0 | 0.00 | 0.00 | 0.00 | 39 | 1011.0 |
| 20260904203048 | 104 | 20 | 2.0 | 6.0 | 0.00 | 0.00 | 0.00 | 40 | 1010.9 |
| 20260904201536 | 104 | 262 | 2.0 | 5.0 | 0.00 | 0.00 | 0.00 | 39 | 1011.1 |
| 20260904200032 | 103 | 246 | 1.0 | 5.0 | 0.00 | 0.00 | 0.00 | 39 | 1011.4 |
| 20260904194531 | 103 | 323 | 3.0 | 6.0 | 0.00 | 0.00 | 0.00 | 41 | 1011.8 |
| 20260904193032 | 104 | 210 | 2.0 | 4.0 | 0.00 | 0.00 | 0.00 | 40 | 1011.8 |
| 20260904191540 | 103 | 121 | 4.0 | 8.0 | 0.00 | 0.00 | 0.00 | 39 | 1012.0 |
| 20260904190035 | 103 | 249 | 1.0 | 10.0 | 0.00 | 0.00 | 0.00 | 41 | 1012.2 |
| 20260904184527 | 103 | 197 | 2.0 | 6.0 | 0.00 | 0.00 | 0.00 | 44 | 1012.4 |
| 20260904183020 | 102 | 171 | 1.0 | 5.0 | 0.00 | 0.00 | 0.00 | 45 | 1013.1 |
| 20260904181517 | 101 | 343 | 1.0 | 5.0 | 0.00 | 0.00 | 0.00 | 48 | 1013.3 |
| 20260904180015 | 102 | 324 | 2.0 | 7.0 | 0.00 | 0.00 | 0.00 | 47 | 1013.4 |
| 20260904174511 | 102 | 15 | 1.0 | 3.0 | 0.00 | 0.00 | 0.00 | 49 | 1013.6 |
| 20260904173020 | 100 | 166 | 1.0 | 7.0 | 0.00 | 0.00 | 0.00 | 50 | 1013.7 |
| 20260904171506 | 100 | 197 | 3.0 | 8.0 | 0.00 | 0.00 | 0.00 | 49 | 1013.9 |
| 20260904170005 | 100 | 249 | 0.0 | 4.0 | 0.00 | 0.00 | 0.00 | 49 | 1013.9 |
| 20260904164557 | 100 | 46 | 2.0 | 5.0 | 0.00 | 0.00 | 0.00 | 50 | 1014.0 |
| 20260904163052 | 98 | 21 | 2.0 | 5.0 | 0.00 | 0.00 | 0.00 | 50 | 1014.3 |
| 20260904161558 | 98 | 312 | 1.0 | 8.0 | 0.00 | 0.00 | 0.00 | 53 | 1014.5 |
| 20260904160044 | 98 | 294 | 0.0 | 4.0 | 0.00 | 0.00 | 0.00 | 52 | 1014.6 |
| 20260904154544 | 96 | 334 | 1.0 | 5.0 | 0.00 | 0.00 | 0.00 | 57 | 1014.9 |
| 20260904153049 | 95 | 202 | 1.0 | 5.0 | 0.00 | 0.00 | 0.00 | 57 | 1014.9 |
| 20260904151534 | 94 | 252 | 1.0 | 7.0 | 0.00 | 0.00 | 0.00 | 61 | 1015.0 |
| 20260904150034 | 93 | 192 | 2.0 | 6.0 | 0.00 | 0.00 | 0.00 | 62 | 1015.1 |
| 20260904144523 | 91 | 210 | 1.0 | 4.0 | 0.00 | 0.00 | 0.00 | 65 | 1015.1 |
| 20260904143019 | 90 | 169 | 0.0 | 3.0 | 0.00 | 0.00 | 0.00 | 69 | 1015.2 |
| 20260904141526 | 88 | 34 | 1.0 | 7.0 | 0.00 | 0.00 | 0.00 | 72 | 1015.1 |
| 20260904140017 | 86 | 177 | 2.0 | 10.0 | 0.00 | 0.00 | 0.00 | 75 | 1015.1 |
| 20260904134504 | 84 | 167 | 2.0 | 6.0 | 0.00 | 0.00 | 0.00 | 78 | 1015.1 |
| 20260904133115 | 83 | 116 | 0.0 | 0.0 | 0.00 | 0.00 | 0.00 | 82 | 1015.2 |
| 20260904131557 | 81 | 237 | 0.0 | 6.0 | 0.00 | 0.00 | 0.00 | 84 | 1015.3 |
| 20260904130052 | 80 | 325 | 1.0 | 8.0 | 0.00 | 0.00 | 0.00 | 87 | 1015.4 |
| 20260904124552 | 78 | 245 | 1.0 | 5.0 | 0.00 | 0.00 | 0.00 | 90 | 1015.4 |
| 20260904123048 | 77 | 264 | 3.0 | 7.0 | 0.00 | 0.00 | 0.00 | 92 | 1015.4 |
| 20260904121546 | 76 | 219 | 1.0 | 3.0 | 0.00 | 0.00 | 0.00 | 93 | 1015.3 |
| 20260904120052 | 75 | 218 | 1.0 | 4.0 | 0.00 | 0.00 | 0.00 | 94 | 1015.3 |
| 20260904114545 | 75 | 249 | 2.0 | 3.0 | 0.00 | 0.00 | 0.00 | 93 | 1015.3 |
| 20260904113041 | 74 | 253 | 0.0 | 1.0 | 0.00 | 0.00 | 0.00 | 93 | 1015.2 |
| 20260904111539 | 75 | 253 | 0.0 | 2.0 | 0.00 | 0.00 | 0.00 | 93 | 1015.3 |
| 20260904110040 | 74 | 256 | 0.0 | 0.0 | 0.00 | 0.00 | 0.00 | 92 | 1015.0 |
| 20260904104535 | 75 | 256 | 0.0 | 3.0 | 0.00 | 0.00 | 0.00 | 92 | 1015.0 |
| 20260904103036 | 75 | 256 | 0.0 | 0.0 | 0.00 | 0.00 | 0.00 | 92 | 1014.9 |
| 20260904101533 | 75 | 256 | 1.0 | 3.0 | 0.00 | 0.00 | 0.00 | 92 | 1014.9 |
| 20260904100036 | 75 | 257 | 0.0 | 2.0 | 0.00 | 0.00 | 0.00 | 92 | 1014.9 |
| 20260904094540 | 75 | 258 | 0.0 | 3.0 | 0.00 | 0.00 | 0.00 | 92 | 1014.8 |
| 20260904093031 | 75 | 258 | 0.0 | 1.0 | 0.00 | 0.00 | 0.00 | 92 | 1014.7 |
| 20260904091535 | 75 | 258 | 0.0 | 1.0 | 0.00 | 0.00 | 0.00 | 92 | 1014.6 |
| 20260904090028 | 75 | 258 | 0.0 | 1.0 | 0.00 | 0.00 | 0.00 | 91 | 1014.6 |
| 20260904084529 | 75 | 258 | 0.0 | 2.0 | 0.00 | 0.00 | 0.00 | 91 | 1014.4 |
| 20260904083026 | 76 | 260 | 0.0 | 2.0 | 0.00 | 0.00 | 0.00 | 90 | 1014.3 |
| 20260904081526 | 76 | 262 | 0.0 | 2.0 | 0.00 | 0.00 | 0.00 | 90 | 1014.1 |